Vertical_Velocity
3 0 -1 5 -2 -3 -0 1 0 -2 -1 5 16 43 6 -9 -3 4 -2 -6 0 -2 3 1 -6 -4 3 1 2 0 6 10 0 4 1 -4 3 -8 7 -5 -2 -2 -1 -1 4 5 -6 1 8 3 2 1 -1 -0
4 -0 -2 1 10 0 2 1 -0 1 4 -12 6 -2 9 -5 -2 7 17 -3 -5 9 1 -4 -5 2 15 17 -6 -3 5 -1 3 1 1 1 0 -1 2 -2 -2 5 -9 -7 -3 -5 5 2 5 -3 -1 3 -4 1
-1 1 6 2 0 5 -2 -4 6 -3 3 -18 3 6 -1 1 2 11 2 -2 15 0 -13 -1 -14 -7 -9 -7 7 8 -5 10 1 -3 2 -0 3 4 1 -6 4 -2 1 -0 1 -8 -5 -3 3 -1 -2 3 0 1
4 -9 2 0 1 -4 -20 9 3 -3 0 12 0 5 -1 7 6 11 -3 3 8 -5 3 -15 -2 -7 -8 0 2 -6 -1 -9 11 -1 0 0 2 4 -2 3 3 -3 1 -2 -5 -3 -0 -1 1 3 -2 0 -1 1
2 -4 -5 3 8 2 9 8 6 -2 13 0 5 7 6 -0 12 10 5 8 -6 -14 3 1 4 -8 4 -3 -3 3 0 -1 2 3 2 -2 -1 8 -3 7 -1 1 -1 2 -3 0 3 1 -5 2 -0 -2 -1 0
-2 -6 -0 -4 2 2 12 3 -8 4 6 11 2 4 4 1 5 11 4 -1 -5 8 -1 1 5 -1 -2 -3 5 -3 3 5 2 0 -3 -1 -21 16 3 0 -6 2 10 0 6 0 -5 -0 -1 -4 -3 -0 -2 -2
1 -1 -2 6 5 4 2 2 1 8 2 12 10 1 0 2 -1 -15 -6 6 3 -3 -7 -0 -1 5 2 14 3 4 5 4 2 -1 1 -1 -4 6 1 1 -11 -5 1 2 4 -4 1 0 -1 -1 -0 1 -5 0
3 6 -5 2 -1 -2 2 10 8 5 4 1 -4 -1 6 3 8 3 -3 -3 9 -5 1 1 -5 6 1 0 2 -1 3 1 2 -4 3 1 2 2 1 -8 -7 -4 2 2 0 -0 2 2 -1 2 1 -4 1 0
3 11 12 7 5 1 1 2 1 -4 -4 1 6 10 4 8 0 -11 -8 4 1 2 -1 2 1 1 -2 0 -1 0 0 2 -3 0 -1 3 0 -2 -9 -3 -1 -6 6 -5 3 3 -3 -0 2 1 -0 1 1 -0
3 4 3 1 1 1 1 -3 -6 -4 -2 -3 3 -7 -0 -2 -0 -1 47 9 1 -2 -2 1 -1 1 -3 0 2 2 0 -1 1 -9 4 2 -4 -11 -6 -0 2 7 -9 -1 1 4 -1 2 1 -1 1 1 -1 -1
-1 -3 -5 -4 -3 -2 -1 1 3 2 3 -4 -6 5 8 9 7 3 1 0 1 3 0 -7 -4 1 -5 1 -1 -0 -1 -0 2 2 1 -0 -1 -4 4 7 9 -10 6 -7 -2 4 1 2 0 -2 2 2 2 -1
1 1 -1 -1 -0 2 1 1 3 1 3 -3 -9 -2 0 0 -0 -1 -1 3 3 -5 4 0 -6 -1 5 1 1 -2 1 2 1 0 2 -0 3 0 -3 6 -4 4 1 0 -3 0 2 1 -2 1 0 0 0 -1
-1 -0 3 1 3 2 -2 -1 -2 -1 2 -0 -3 -3 0 1 6 3 0 3 3 -1 -1 2 1 -4 -1 0 -1 3 2 -2 1 1 -2 1 0 1 2 -1 2 -1 -3 3 2 -0 3 3 4 -1 0 -0 -2 -1
4 3 1 -3 -6 1 3 2 -6 -10 -9 -6 -3 3 2 3 -1 -1 1 2 2 1 2 -1 -1 -2 -1 3 -0 2 -1 2 1 2 0 4 3 -1 5 2 -1 5 2 1 1 1 -2 -2 -1 1 -0 1 2 -1
-1 2 2 1 -2 -7 -3 -1 -1 -1 -5 -2 2 -0 1 -2 -1 1 -3 -1 -5 4 0 -0 -1 -1 1 -0 0 0 2 -0 -2 -0 2 1 -3 1 6 4 -1 0 2 0 0 -0 -0 0 0 -1 -0 -0 -1 -1
-3 2 1 -1 -1 -1 3 -2 -1 -1 -1 1 2 1 -2 2 -0 -1 -1 0 -2 2 5 2 -0 2 0 -1 3 -2 2 -1 3 1 0 -1 4 0 -1 -1 -1 0 0 -1 -1 -0 -1 -1 -1 -1 -1 -1 -1 -0
-9 -6 2 -2 0 6 7 1 -1 -1 -0 1 1 -2 -2 0 3 1 -1 -1 -2 6 -0 1 1 -2 0 1 1 1 2 3 2 -0 -1 -1 -2 -1 -0 1 1 1 0 1 0 0 -1 -0 0 0 -1 -1 -1 0
3 -0 0 -3 -4 -1 1 -2 -4 -0 -0 -1 3 3 -2 -1 -1 -0 -1 -4 2 1 -1 -0 -0 1 -1 0 2 1 0 -1 0 -1 0 -1 -0 1 2 4 0 -0 -0 0 1 1 1 1 -0 -1 0 -0 1 0
6 -0 -2 0 -2 4 -3 -3 -3 2 0 -0 -3 -2 -0 0 -0 -1 -0 -3 6 5 5 1 -0 0 2 1 2 2 1 -1 -2 1 -0 -1 0 1 2 2 1 0 0 0 0 -1 1 2 3 1 -1 0 -0 -1
1 -1 -3 -2 3 6 5 3 0 3 1 3 -4 4 -2 -2 -1 -2 -0 2 1 1 -0 0 2 2 1 1 -1 1 1 -0 -4 0 2 1 1 1 2 2 -1 0 0 1 1 1 1 1 1 -0 -1 0 -1 -1
-1 -3 -2 0 -4 2 4 -0 2 -3 -1 2 -3 0 1 -3 1 1 -0 -2 1 1 1 -0 -1 -2 -1 -0 -0 -0 -1 2 3 6 -3 -1 1 1 -2 -1 0 3 1 2 -2 0 -0 -1 -2 0 -0 1 1 0
-0 -3 5 1 4 0 3 -0 0 -4 3 3 1 -1 1 1 -1 -2 -2 1 1 0 0 0 -2 -2 -0 1 -2 -3 -1 -2 -1 -0 0 -1 -2 -1 -1 0 0 0 1 1 -1 0 0 -3 -1 -0 -0 -1 1 1
3 -0 -0 2 1 1 -2 -2 3 -1 2 -0 0 1 0 -0 -0 -2 1 0 -0 -2 -1 -0 1 1 -2 1 -1 -1 -1 -1 -0 1 1 1 -1 -0 -0 -0 0 -1 -1 -1 0 1 -1 -1 -0 -1 -2 -1 -1 -1
2 0 0 -0 1 0 -2 -0 -1 1 -0 1 1 -0 0 0 -2 2 -0 1 -0 -5 -2 -1 1 3 4 0 -2 -0 1 0 -1 -0 0 -2 -1 0 -1 -3 -2 -2 -2 -1 -1 -1 0 -3 1 0 -0 -2 -2 -2
2 -1 -2 0 -1 1 1 0 -1 1 -0 -1 0 -0 1 -1 1 1 -1 2 -0 -1 -0 -1 3 3 1 1 -2 -1 0 2 -3 -3 1 2 -2 -0 1 1 0 -2 0 -0 -2 0 2 -1 1 1 1 1 1 -1
1 -2 2 -0 -1 3 -0 0 0 -0 0 0 -1 1 -1 1 2 -2 1 2 3 0 -0 -0 1 1 3 0 -3 1 -0 1 4 -2 -1 -0 0 -0 1 1 -2 -4 -1 -1 -1 1 -0 1 2 0 1 2 4 1
1 1 1 -4 0 1 0 -1 -0 2 0 -0 -1 0 1 1 -1 4 -0 -0 2 0 0 1 6 6 2 -3 -2 -1 -1 -0 -1 -2 -0 -1 -2 -2 -3 -1 -1 -3 -0 -0 -1 1 1 -0 0 4 2 1 4 1
1 -0 1 -1 0 0 0 0 0 -1 -1 0 1 0 0 1 4 2 -0 -1 -2 -2 -3 -1 0 -0 -0 -4 -2 1 0 1 1 1 0 0 -0 -0 0 1 1 -0 0 -1 -2 -1 -1 0 0 -0 1 0 1 2
1 -1 1 -0 -1 1 -1 -1 -1 1 -3 -3 1 -0 1 2 -4 -2 -4 -4 -3 -1 0 -1 1 2 2 1 1 0 1 1 0 -1 -0 -1 -2 -1 -1 -1 -1 -1 -1 -1 0 1 0 -1 -1 -1 -0 0 -0 1
2 -3 1 0 1 -1 -1 1 1 1 -4 3 -1 -4 -1 3 -6 -1 -2 -1 -1 -3 0 2 -3 -0 -1 0 -0 1 0 0 0 0 3 5 -2 -2 -0 -1 -1 -1 0 0 1 0 1 1 1 0 0 -1 0 1
-2 0 1 0 -1 1 -0 -4 -5 -2 -2 -3 -0 2 -3 8 -4 -6 -1 -1 1 2 2 0 -1 1 0 2 -1 -1 -1 -0 1 1 -1 0 -1 -1 -1 -0 -0 -0 -0 -0 -0 -1 0 -0 -0 -0 -1 -1 -0 0
1 -0 2 0 1 3 -6 -2 1 3 3 4 2 4 5 -2 -0 2 -1 1 1 1 0 2 -1 -3 3 1 -0 -0 0 0 -0 -0 -1 -2 -2 -1 -0 -0 -0 -0 -0 0 0 1 -0 -0 -1 -1 0 0 -1 -1
-3 -1 1 -0 -0 1 4 -2 0 -0 2 -1 -2 1 8 -0 4 -0 -0 1 -0 5 6 5 4 6 0 1 -1 -2 -1 -0 -0 0 0 1 1 1 1 1 1 1 1 1 0 0 -0 -0 -1 -1 -1 0 -0 -0
Height
1357 1356 1356 1358 1360 1363 1367 1371 1375 1379 1384 1391 1398 1397 1405 1423 1436 1447 1453 1458 1463 1465 1465 1466 1468 1469 1471 1473 1474 1473 1474 1475 1482 1482 1481 1472 1462 1453 1447 1444 1444 1455 1459 1458 1459 1462 1456 1434 1437 1441 1443 1442 1443 1444
1349 1349 1349 1350 1350 1354 1359 1363 1368 1372 1379 1385 1391 1399 1410 1422 1433 1445 1452 1455 1461 1464 1465 1464 1466 1468 1470 1473 1475 1475 1473 1476 1477 1479 1478 1471 1461 1459 1452 1453 1437 1449 1445 1441 1438 1437 1441 1438 1439 1441 1441 1440 1443 1444
1341 1342 1342 1343 1345 1348 1352 1355 1360 1367 1374 1380 1388 1398 1409 1421 1432 1441 1449 1454 1458 1461 1464 1465 1464 1465 1466 1467 1472 1474 1472 1473 1476 1477 1477 1475 1469 1459 1456 1445 1441 1437 1438 1445 1443 1435 1438 1442 1441 1440 1441 1441 1442 1444
1333 1333 1333 1336 1338 1341 1344 1348 1356 1363 1370 1379 1387 1398 1408 1420 1431 1439 1445 1450 1455 1461 1463 1459 1458 1459 1460 1463 1465 1468 1469 1472 1473 1474 1475 1473 1467 1460 1455 1449 1447 1443 1442 1438 1437 1433 1430 1435 1438 1438 1441 1442 1444 1445
1320 1323 1325 1328 1331 1336 1339 1346 1354 1358 1367 1377 1389 1400 1411 1421 1431 1439 1446 1448 1454 1462 1458 1456 1455 1455 1456 1458 1460 1463 1466 1468 1470 1472 1472 1468 1463 1460 1449 1445 1439 1434 1432 1432 1434 1431 1432 1434 1435 1437 1439 1442 1444 1446
1310 1316 1320 1326 1330 1336 1341 1348 1354 1362 1370 1382 1392 1403 1414 1423 1432 1439 1445 1449 1452 1457 1460 1456 1450 1449 1451 1452 1455 1457 1459 1462 1465 1465 1465 1461 1459 1462 1450 1438 1431 1430 1427 1428 1431 1431 1433 1434 1435 1437 1439 1442 1443 1446
1311 1317 1322 1327 1333 1340 1346 1353 1359 1367 1377 1388 1399 1409 1418 1426 1432 1438 1443 1444 1447 1454 1459 1457 1447 1441 1444 1447 1449 1452 1454 1456 1458 1458 1458 1457 1456 1455 1447 1438 1434 1432 1430 1432 1432 1433 1435 1435 1436 1437 1439 1441 1443 1446
1319 1322 1325 1332 1340 1347 1353 1361 1370 1378 1387 1396 1406 1415 1422 1428 1433 1438 1441 1441 1445 1452 1456 1451 1444 1441 1442 1444 1446 1448 1450 1451 1452 1453 1450 1450 1450 1449 1440 1429 1430 1428 1427 1429 1431 1432 1433 1434 1436 1437 1439 1441 1443 1446
1329 1334 1339 1346 1353 1359 1366 1372 1380 1387 1395 1404 1412 1418 1424 1429 1433 1436 1441 1443 1445 1452 1450 1449 1442 1435 1441 1443 1445 1446 1447 1447 1447 1445 1444 1445 1441 1435 1427 1424 1422 1421 1421 1426 1429 1431 1432 1435 1436 1437 1439 1441 1443 1446
1345 1350 1355 1360 1365 1370 1376 1381 1388 1395 1401 1407 1414 1420 1424 1427 1432 1437 1442 1445 1448 1447 1447 1442 1438 1435 1439 1441 1442 1444 1441 1438 1436 1433 1434 1434 1424 1421 1420 1418 1418 1417 1421 1424 1427 1429 1432 1433 1435 1437 1439 1441 1443 1445
1360 1363 1367 1372 1376 1380 1385 1390 1395 1399 1405 1410 1415 1419 1423 1428 1432 1434 1438 1441 1441 1440 1437 1432 1431 1431 1434 1435 1436 1436 1431 1430 1422 1423 1425 1420 1413 1410 1412 1414 1417 1419 1421 1424 1426 1427 1430 1432 1434 1436 1439 1441 1443 1445
1372 1375 1378 1381 1384 1388 1391 1396 1400 1404 1407 1411 1414 1421 1427 1429 1432 1434 1434 1434 1432 1424 1422 1422 1423 1425 1429 1431 1433 1431 1426 1421 1416 1418 1419 1415 1412 1413 1414 1415 1419 1419 1422 1424 1426 1427 1429 1431 1434 1437 1439 1441 1443 1445
1382 1384 1386 1388 1390 1393 1396 1400 1404 1408 1411 1414 1417 1423 1425 1428 1426 1426 1420 1418 1416 1413 1414 1416 1420 1424 1428 1430 1432 1427 1425 1422 1419 1419 1416 1411 1414 1415 1415 1418 1420 1422 1425 1426 1427 1428 1430 1433 1435 1437 1439 1441 1443 1445
1388 1389 1391 1393 1396 1399 1401 1405 1409 1412 1415 1417 1420 1421 1421 1418 1415 1409 1408 1411 1412 1411 1412 1415 1420 1422 1425 1427 1428 1425 1421 1419 1420 1416 1409 1414 1417 1417 1419 1420 1423 1425 1426 1427 1428 1429 1431 1433 1436 1438 1440 1442 1444 1445
1394 1395 1396 1398 1400 1404 1407 1410 1413 1415 1417 1418 1418 1413 1412 1412 1412 1412 1413 1413 1413 1412 1413 1416 1419 1421 1420 1424 1421 1420 1423 1417 1412 1405 1415 1419 1420 1420 1421 1423 1425 1427 1428 1429 1430 1432 1433 1435 1437 1439 1441 1442 1444 1446
1397 1398 1399 1401 1404 1407 1410 1413 1415 1416 1417 1418 1416 1415 1412 1412 1412 1412 1412 1413 1413 1412 1414 1415 1415 1416 1415 1415 1415 1415 1409 1404 1410 1417 1419 1420 1421 1421 1422 1424 1426 1428 1429 1430 1432 1433 1435 1436 1438 1440 1442 1444 1445 1447
1401 1402 1404 1405 1408 1411 1413 1415 1416 1416 1417 1416 1414 1414 1414 1413 1412 1411 1411 1412 1412 1412 1410 1409 1408 1408 1409 1408 1408 1404 1408 1415 1418 1419 1420 1420 1420 1422 1423 1425 1426 1428 1430 1432 1433 1434 1436 1438 1439 1441 1443 1444 1446 1447
1405 1407 1408 1410 1412 1414 1416 1416 1417 1416 1416 1415 1414 1413 1413 1413 1411 1411 1410 1411 1412 1411 1412 1408 1406 1406 1408 1405 1405 1414 1416 1419 1419 1420 1420 1420 1421 1422 1423 1424 1426 1428 1431 1432 1434 1436 1437 1439 1440 1441 1443 1444 1446 1447
1408 1410 1412 1413 1415 1416 1417 1417 1417 1414 1414 1414 1413 1413 1413 1412 1411 1411 1410 1410 1410 1410 1409 1407 1407 1405 1409 1414 1415 1416 1417 1418 1420 1420 1421 1421 1422 1423 1424 1425 1427 1429 1431 1433 1435 1436 1438 1439 1441 1441 1442 1444 1445 1446
1414 1415 1416 1416 1417 1416 1417 1416 1416 1414 1413 1414 1413 1412 1412 1412 1411 1411 1410 1410 1410 1409 1409 1407 1409 1413 1415 1416 1416 1417 1417 1418 1420 1421 1422 1422 1423 1424 1425 1427 1428 1430 1432 1433 1435 1436 1437 1439 1440 1441 1442 1444 1445 1446
1417 1418 1418 1418 1418 1418 1417 1415 1414 1415 1414 1413 1412 1412 1411 1411 1411 1411 1411 1410 1410 1409 1409 1412 1413 1414 1415 1416 1416 1417 1418 1419 1420 1421 1421 1423 1424 1425 1426 1428 1430 1431 1432 1434 1435 1436 1437 1438 1439 1440 1441 1442 1443 1444
1419 1419 1420 1419 1419 1418 1417 1416 1416 1415 1414 1413 1413 1412 1411 1411 1411 1411 1411 1410 1409 1411 1411 1412 1413 1414 1415 1416 1416 1417 1418 1419 1420 1421 1422 1423 1424 1426 1427 1429 1430 1431 1432 1433 1435 1436 1436 1437 1437 1438 1438 1439 1441 1442
1419 1419 1419 1418 1418 1417 1418 1416 1415 1414 1413 1412 1412 1410 1410 1411 1411 1411 1410 1409 1409 1410 1411 1412 1413 1413 1414 1415 1416 1417 1419 1419 1420 1421 1422 1423 1424 1426 1428 1429 1430 1431 1432 1433 1434 1435 1435 1436 1436 1437 1437 1438 1439 1440
1418 1418 1417 1417 1417 1416 1416 1415 1414 1413 1412 1411 1410 1409 1409 1410 1411 1409 1406 1406 1408 1409 1410 1411 1412 1413 1415 1416 1417 1419 1419 1420 1420 1422 1423 1424 1425 1427 1428 1429 1430 1431 1432 1433 1433 1434 1435 1436 1436 1437 1437 1438 1439 1441
1420 1420 1419 1417 1417 1417 1415 1414 1414 1411 1411 1411 1410 1408 1409 1410 1408 1406 1402 1404 1406 1408 1409 1411 1412 1413 1415 1416 1417 1419 1420 1421 1421 1422 1424 1425 1426 1427 1429 1429 1429 1429 1430 1431 1432 1434 1434 1435 1435 1436 1437 1438 1439 1440
1416 1418 1418 1417 1416 1415 1413 1412 1413 1412 1410 1410 1408 1409 1409 1408 1405 1400 1400 1404 1405 1406 1408 1409 1411 1412 1413 1415 1416 1418 1419 1421 1422 1422 1423 1424 1425 1426 1428 1429 1429 1429 1429 1430 1431 1432 1433 1433 1434 1435 1436 1437 1439 1439
1415 1416 1416 1416 1415 1414 1414 1414 1412 1412 1411 1409 1407 1408 1408 1405 1398 1402 1404 1404 1405 1406 1407 1408 1409 1411 1411 1413 1415 1416 1417 1418 1419 1420 1421 1422 1423 1424 1426 1427 1427 1428 1427 1428 1429 1430 1431 1432 1433 1434 1435 1436 1437 1438
1416 1416 1416 1416 1415 1414 1413 1412 1411 1410 1408 1408 1409 1406 1403 1400 1401 1404 1404 1403 1404 1405 1406 1407 1408 1409 1410 1410 1412 1413 1415 1416 1417 1418 1419 1420 1421 1422 1423 1424 1424 1425 1426 1426 1427 1428 1429 1430 1431 1431 1432 1434 1435 1436
1416 1416 1416 1415 1415 1413 1411 1409 1407 1406 1408 1409 1408 1402 1403 1403 1403 1403 1402 1401 1402 1404 1405 1405 1406 1407 1408 1409 1410 1411 1412 1414 1415 1416 1417 1419 1419 1420 1420 1421 1422 1423 1424 1425 1426 1426 1427 1428 1428 1430 1431 1432 1433 1434
1416 1416 1415 1413 1413 1408 1407 1407 1406 1406 1406 1406 1406 1405 1404 1402 1400 1400 1400 1400 1400 1402 1403 1404 1405 1406 1406 1407 1408 1409 1410 1411 1413 1415 1416 1417 1418 1419 1419 1420 1421 1422 1422 1423 1424 1425 1426 1427 1428 1429 1430 1430 1431 1433
1417 1416 1414 1411 1407 1405 1404 1404 1404 1403 1403 1402 1402 1401 1401 1399 1397 1397 1396 1397 1398 1400 1401 1402 1403 1404 1405 1406 1406 1407 1408 1409 1411 1412 1414 1415 1416 1417 1418 1418 1419 1420 1421 1422 1422 1424 1425 1426 1427 1428 1428 1429 1430 1431
1415 1413 1411 1408 1404 1403 1403 1403 1401 1399 1397 1396 1395 1396 1396 1396 1396 1393 1391 1392 1393 1395 1397 1399 1400 1401 1403 1403 1404 1405 1406 1408 1409 1411 1412 1413 1414 1415 1416 1417 1418 1419 1420 1421 1422 1423 1424 1425 1426 1427 1428 1429 1430 1431
1411 1410 1409 1407 1403 1401 1402 1402 1398 1395 1393 1392 1391 1391 1390 1391 1390 1389 1388 1388 1391 1393 1395 1396 1396 1398 1399 1401 1402 1403 1405 1407 1408 1409 1410 1411 1412 1413 1414 1415 1417 1418 1419 1420 1421 1422 1423 1424 1425 1426 1427 1429 1430 1431